Fryeburg, ME

9:00 AM EDT on June 24, 2017 (GMT -0400)
Eastern Slopes Regional

Weather History for KIZG - February, 2012

Change the Weather History Date:

Friday, February 24, 2012

  Actual Average Record
Temperature  
Mean Temperature 30 °F -  
Max Temperature 37 °F 33 °F 51 °F (2017)
Min Temperature 23 °F 10 °F -18 °F (2015)
Degree Days  
Heating Degree Days 35    
Moisture  
Dew Point 27 °F    
Average Humidity 84    
Maximum Humidity 100    
Minimum Humidity 52    
Precipitation  
Precipitation 0.75 in - - ()
Sea Level Pressure  
Sea Level Pressure 29.58 in    
Wind  
Wind Speed 2 mph (NNE)    
Max Wind Speed 9 mph    
Max Gust Speed -    
Visibility 5 miles    
Events Fog , Snow    
Averages and records for this station are not official NWS values.
T = Trace of Precipitation, MM = Missing Value Source: NWS Daily Summary

Daily Weather History Graph

Daily Weather History Graph

Search for Another Location

Airport or City:

Trip Planner

Search our weather history database for the weather conditions in past years. The results will help you decide how hot, cold, wet, or windy it might be!

Date:

Astronomy

Feb. 24, 2012 Rise Set
Actual Time 6:29 AM EST 5:24 PM EST
Civil Twilight 6:00 AM EST 5:54 PM EST
Nautical Twilight 5:27 AM EST 6:27 PM EST
Astronomical Twilight 4:53 AM EST 7:01 PM EST
Moon 7:15 AM EST 8:34 PM EST
Length of Visible Light 11h 53m
Length of Day
10h 55m
Waxing Crescent, 7% of the Moon is Illuminated
Feb 24
Waxing Crescent
Feb 29
First Quarter
Mar 8
Full
Mar 14
Last Quarter
Mar 22
New

Hourly Weather History & Observations

Time (EST) Temp. Windchill Dew Point Humidity Pressure Visibility Wind Dir Wind Speed Gust Speed Precip Events Conditions
12:54 AM 28.0 °F - 18.0 °F 66% 29.76 in 10.0 mi Calm Calm - N/A   Clear
1:54 AM 25.0 °F - 19.0 °F 78% 29.76 in 10.0 mi Calm Calm - N/A   Clear
2:54 AM 24.1 °F - 19.0 °F 81% 29.77 in 10.0 mi Calm Calm - N/A   Clear
3:54 AM 23.0 °F - 19.0 °F 85% 29.78 in 10.0 mi Calm Calm - N/A   Clear
4:54 AM 24.1 °F - 19.9 °F 84% 29.78 in 10.0 mi Calm Calm - N/A   Clear
5:54 AM 25.0 °F - 21.0 °F 85% 29.79 in 10.0 mi Calm Calm - N/A   Clear
6:54 AM 24.1 °F - 21.0 °F 88% 29.78 in 10.0 mi Calm Calm - N/A   Clear
7:54 AM 28.0 °F - 21.9 °F 78% 29.79 in 10.0 mi Calm Calm - N/A   Clear
8:54 AM 33.1 °F - 23.0 °F 66% 29.80 in 10.0 mi Calm Calm - N/A   Partly Cloudy
9:54 AM 34.0 °F - 21.9 °F 61% 29.79 in 10.0 mi Calm Calm - N/A   Overcast
10:54 AM 36.0 °F - 21.9 °F 57% 29.77 in 10.0 mi Calm Calm - N/A   Overcast
11:54 AM 37.0 °F - 21.0 °F 52% 29.76 in 10.0 mi Calm Calm - N/A   Overcast
12:54 PM 37.0 °F 33.3 °F 21.9 °F 54% 29.70 in 10.0 mi ESE 4.6 mph - N/A   Overcast
1:54 PM 36.0 °F 31.1 °F 23.0 °F 59% 29.68 in 9.0 mi East 5.8 mph - 0.00 in Snow Light Snow
2:54 PM 35.1 °F - 27.0 °F 72% 29.66 in 10.0 mi Calm Calm - 0.00 in   Overcast
3:24 PM 33.8 °F 30.8 °F 26.6 °F 75% 29.62 in 10.0 mi NE 3.5 mph - N/A   Overcast
3:54 PM 35.1 °F 32.2 °F 26.1 °F 70% 29.63 in 10.0 mi East 3.5 mph - N/A   Overcast
4:46 PM 33.8 °F - 28.4 °F 81% 29.60 in 2.0 mi Calm Calm - 0.01 in Snow Light Snow
4:54 PM 33.1 °F - 28.9 °F 85% 29.61 in 2.0 mi Calm Calm - 0.02 in Snow Light Snow
5:01 PM 33.8 °F - 30.2 °F 87% 29.59 in 1.2 mi Calm Calm - 0.01 in Snow Light Snow
5:10 PM 33.8 °F - 30.2 °F 87% 29.59 in 0.8 mi Calm Calm - 0.02 in Snow Light Snow
5:19 PM 32.0 °F - 30.2 °F 93% 29.59 in 1.2 mi Calm Calm - 0.03 in Snow Light Snow
5:49 PM 32.0 °F 28.7 °F 30.9 °F 96% 29.59 in 1.8 mi North 3.5 mph - 0.05 in Snow Light Snow
5:56 PM 32.0 °F 28.7 °F 30.2 °F 93% 29.58 in 2.0 mi North 3.5 mph - 0.00 in Snow Light Snow
6:06 PM 32.0 °F 28.7 °F 30.2 °F 93% 29.56 in 1.8 mi North 3.5 mph - 0.00 in Snow Light Snow
6:51 PM 32.0 °F 28.7 °F 30.2 °F 93% 29.53 in 2.0 mi North 3.5 mph - 0.01 in Snow Light Snow
6:54 PM 32.0 °F - 30.9 °F 96% 29.55 in 2.0 mi Calm Calm - 0.02 in Snow Light Snow
7:02 PM 32.0 °F 26.4 °F 30.2 °F 93% 29.49 in 1.5 mi NNE 5.8 mph - 0.01 in Snow Light Snow
7:07 PM 32.0 °F 24.8 °F 30.2 °F 93% 29.46 in 1.0 mi NE 8.1 mph - 0.02 in Snow Light Snow
7:36 PM 32.0 °F 28.7 °F 32.0 °F 100% 29.48 in 1.8 mi Variable 3.5 mph - 0.05 in Snow Light Snow
7:42 PM 32.0 °F 26.4 °F 32.0 °F 100% 29.46 in 1.0 mi ENE 5.8 mph - 0.07 in Snow Light Snow
7:49 PM 32.0 °F 27.5 °F 30.2 °F 93% 29.45 in 0.5 mi NE 4.6 mph - 0.09 in Fog , Snow Light Snow
7:54 PM 32.0 °F 27.5 °F 30.9 °F 96% 29.48 in 0.8 mi NNE 4.6 mph - 0.09 in Snow Light Snow
8:13 PM 32.0 °F 28.7 °F 32.0 °F 100% 29.46 in 0.5 mi ENE 3.5 mph - 0.04 in Fog , Snow Snow
8:32 PM 32.0 °F 28.7 °F 30.2 °F 93% 29.43 in 0.5 mi North 3.5 mph - 0.10 in Fog , Snow Snow
8:43 PM 32.0 °F 27.5 °F 30.2 °F 93% 29.42 in 0.5 mi North 4.6 mph - 0.13 in Fog , Snow Snow
8:54 PM 32.0 °F 27.5 °F 30.9 °F 96% 29.42 in 0.5 mi North 4.6 mph - 0.16 in Fog , Snow Snow
9:54 PM 32.0 °F 26.4 °F 30.9 °F 96% 29.37 in 0.8 mi NNW 5.8 mph - 0.16 in Snow Light Snow
10:54 PM 32.0 °F 26.4 °F 30.9 °F 96% 29.30 in 0.8 mi North 5.8 mph - 0.17 in Snow Light Snow
11:15 PM 32.0 °F 24.2 °F 30.2 °F 93% 29.24 in 1.0 mi North 9.2 mph - 0.03 in Snow Light Snow
11:35 PM 32.0 °F 26.4 °F 30.2 °F 93% 29.24 in 0.8 mi North 5.8 mph - 0.06 in Snow Light Snow
11:54 PM 32.0 °F - 30.9 °F 96% 29.24 in 1.0 mi Calm Calm - 0.08 in Snow Light Snow